Wind_Speed
9 10 10 11 12 13 15 16 16 17 17 16 15 13 11 8 6 5 4 3 2 1 0 1 2 3 3 4 7 10 13 15 16 15 14 14 13 13 12 12 11 11 12
8 8 9 10 11 12 14 15 16 17 17 16 16 15 13 10 7 6 4 3 2 1 0 0 1 2 3 4 6 7 10 12 14 15 15 15 15 14 14 14 14 14 14
6 7 8 8 9 11 12 14 15 16 16 17 17 16 15 12 10 7 5 4 3 2 1 1 1 1 2 3 5 6 7 8 10 12 14 16 15 14 13 13 13 14 14
4 6 6 7 8 9 10 11 13 14 15 16 16 16 15 14 12 9 7 5 4 3 2 1 1 1 2 3 5 5 6 6 7 9 10 12 12 11 10 10 11 12 13
3 4 5 6 6 7 8 9 10 12 13 14 14 15 15 15 13 12 10 7 5 4 3 2 2 2 3 4 5 6 6 6 6 8 9 8 7 7 6 7 8 9 10
3 3 4 4 5 5 6 6 7 9 10 11 12 12 13 13 13 12 11 10 8 6 4 3 3 2 3 4 6 7 8 8 7 7 8 6 4 4 2 3 4 6 7
5 4 3 3 4 4 5 5 5 6 7 8 9 10 11 11 12 12 12 11 10 8 7 5 4 3 3 3 5 7 9 8 8 8 7 6 4 3 2 3 4 5 5
6 5 4 3 2 3 3 3 4 4 5 6 6 7 8 9 10 11 12 12 11 10 8 6 4 3 3 1 3 6 8 8 8 7 8 6 3 3 4 5 5 6 5
6 7 6 5 3 2 1 1 1 2 3 3 4 4 5 6 7 8 10 11 11 10 9 7 5 3 2 1 2 5 7 8 8 7 6 5 5 4 5 6 6 6 6
6 7 7 7 6 5 4 3 2 1 1 2 2 3 3 4 5 6 7 8 9 9 9 7 5 3 2 1 1 3 5 6 7 7 8 7 6 6 6 7 7 8 7
4 6 7 8 8 8 8 7 6 6 5 4 4 3 3 3 4 5 6 6 7 7 8 7 6 4 3 2 0 2 3 5 5 7 8 7 7 7 7 7 7 7 8
5 5 6 8 9 10 11 11 10 10 9 8 8 7 6 5 5 6 6 6 6 6 6 6 6 5 4 2 1 1 3 4 4 7 8 8 8 8 8 8 7 7 7
7 7 7 8 9 10 11 12 12 12 12 11 11 10 9 8 8 8 7 7 6 6 6 5 5 5 4 4 3 2 3 4 4 7 8 9 9 9 9 9 8 8 7
11 11 10 10 10 11 12 13 13 14 14 14 14 13 12 12 11 11 10 9 9 8 7 7 6 6 5 4 4 4 4 5 5 8 9 10 11 11 12 12 11 11 11
13 13 13 13 12 13 14 14 15 16 16 16 16 16 16 16 15 14 13 12 11 11 10 9 8 8 7 6 6 6 6 6 7 9 10 11 13 14 14 15 15 15 15
16 16 16 16 16 16 16 16 17 18 18 18 19 19 19 19 18 17 16 15 14 14 13 12 11 10 9 9 9 8 8 8 8 10 11 13 14 15 16 17 18 19 19
20 20 19 19 19 19 18 19 19 20 20 20 21 21 21 21 21 20 19 18 17 16 16 15 14 13 12 12 11 11 11 10 11 11 12 13 15 16 17 19 20 22 23
24 24 22 22 22 22 22 22 21 21 21 22 22 23 23 23 23 22 21 20 20 19 18 17 17 16 16 15 15 14 13 13 13 14 14 15 17 18 19 20 21 22 24
28 28 27 25 25 25 24 25 24 24 23 23 23 23 24 25 25 24 23 23 22 21 21 21 20 20 19 19 18 17 16 16 16 17 17 18 19 19 20 21 22 23 24
33 32 32 30 29 29 28 28 27 27 26 25 24 24 25 26 26 25 25 25 25 24 24 23 23 23 22 22 20 19 19 19 19 20 21 22 22 21 22 23 23 23 24
37 36 36 35 33 32 32 31 31 31 30 28 26 25 26 26 26 26 27 27 26 27 26 26 26 25 24 24 23 22 22 22 22 23 24 26 25 24 25 24 24 24 24
38 38 37 37 36 35 35 35 35 35 33 32 30 28 28 28 28 27 29 29 29 29 29 27 26 25 24 23 23 23 23 24 25 24 25 27 27 26 27 26 25 25 24
37 36 36 36 36 36 36 36 37 37 36 34 33 31 30 30 30 30 31 32 32 31 31 30 28 26 24 24 24 24 24 25 25 26 26 27 29 28 28 29 27 26 24
33 33 34 34 35 36 37 38 38 39 38 36 36 35 34 33 33 33 32 32 33 32 32 32 30 28 27 26 25 25 25 26 26 27 28 28 29 30 29 29 29 27 26
30 31 32 33 34 36 37 37 38 38 39 38 38 38 37 36 36 36 35 34 34 33 32 32 31 29 27 26 25 25 25 26 27 27 28 29 29 29 29 28 28 29 27
31 31 32 33 34 36 37 38 38 39 40 40 41 40 39 38 37 37 36 36 35 34 32 31 31 30 29 27 26 25 26 27 28 28 28 29 29 28 27 27 28 28 28
Wind_Direction
91 93 94 91 87 79 74 71 68 65 64 61 57 54 53 56 64 66 62 59 57 44 263 236 236 234 229 229 222 217 219 217 214 215 217 221 228 235 240 246 251 259 263
94 95 97 96 91 85 78 73 70 66 63 61 57 54 52 54 60 65 62 60 60 54 33 271 243 237 235 231 221 224 228 225 225 226 227 230 236 240 244 248 255 262 263
100 97 100 100 96 90 83 75 70 65 62 60 57 54 51 51 53 57 56 54 51 49 43 9 289 258 256 238 233 232 232 224 227 230 229 231 235 239 246 251 257 261 262
110 100 100 103 100 95 88 79 71 66 62 58 55 53 52 51 51 50 47 44 41 35 25 9 329 287 274 257 247 234 230 225 226 223 227 232 228 231 244 251 258 263 263
139 111 101 103 104 101 93 83 74 67 62 57 52 50 49 49 50 49 46 44 40 31 19 6 345 311 286 265 248 233 223 219 220 223 229 230 214 216 238 251 264 270 268
179 145 114 104 106 107 101 88 76 68 62 55 49 46 45 45 46 45 45 43 41 33 20 8 357 332 308 272 243 228 218 217 217 225 237 233 202 182 209 268 296 286 277
199 185 155 126 115 114 111 97 82 70 60 51 45 41 40 39 39 39 39 40 40 37 29 16 5 354 332 280 232 220 216 217 220 227 237 239 216 202 251 305 308 307 292
207 205 198 182 155 131 119 105 87 74 59 48 41 37 33 32 33 33 33 34 36 38 36 28 19 13 4 302 211 207 210 214 223 235 255 259 261 274 292 300 305 307 302
212 215 218 220 219 212 186 138 81 70 56 42 33 29 25 21 22 25 26 29 34 37 38 35 31 29 28 60 176 196 206 215 224 232 252 267 279 290 292 296 300 303 296
216 223 229 235 240 244 248 251 265 286 322 346 356 2 2 359 359 5 11 19 27 32 34 34 33 37 37 52 145 178 201 215 222 227 245 257 265 276 287 293 299 298 289
225 230 236 241 247 252 256 260 265 270 272 275 285 293 307 315 320 327 341 357 10 19 22 24 26 28 29 35 104 196 214 220 214 224 241 251 259 268 278 288 297 299 291
258 252 253 253 254 257 260 264 268 270 270 268 269 271 276 278 286 295 307 324 339 352 2 10 14 14 11 7 346 249 248 237 225 231 244 251 258 262 267 275 283 287 286
275 269 267 268 267 266 267 269 271 271 271 268 268 268 269 269 272 279 285 295 307 319 332 340 352 354 349 346 334 292 275 262 247 248 257 260 263 266 265 267 268 271 274
274 274 272 273 274 278 279 278 278 278 275 272 272 271 269 268 268 269 272 277 287 295 302 309 318 325 323 312 310 303 290 279 266 263 267 267 268 269 269 269 267 267 268
270 273 275 275 276 278 281 282 284 284 282 280 277 274 272 270 270 268 266 268 274 282 285 288 295 296 297 299 296 293 288 287 277 271 273 271 270 271 271 271 270 268 268
268 270 273 276 277 276 279 282 284 285 285 284 280 277 275 273 271 269 266 265 267 272 278 280 283 284 285 288 292 292 291 288 285 280 279 278 276 275 276 275 273 271 270
270 270 272 274 277 276 276 279 281 283 284 284 281 279 277 274 273 271 268 265 264 267 272 276 276 278 279 283 286 288 288 288 287 285 286 285 282 281 279 278 276 275 273
272 272 272 273 275 276 277 278 280 282 282 281 280 280 279 277 274 273 270 267 265 265 268 271 272 273 275 277 280 282 284 288 289 288 288 287 287 287 285 283 280 278 277
272 273 273 272 274 275 277 278 278 279 281 280 280 280 279 278 277 275 272 267 265 264 265 267 269 270 271 273 275 277 280 285 287 287 287 286 286 288 288 287 287 284 281
271 272 273 273 273 274 275 277 278 278 279 279 280 280 279 278 276 276 273 268 264 263 263 264 268 268 267 269 271 274 277 282 285 287 286 286 284 285 286 288 288 286 283
269 270 271 273 272 273 273 274 276 277 277 277 279 280 279 278 277 275 273 271 267 263 263 265 267 266 266 267 268 271 275 279 281 284 286 286 283 283 284 285 285 285 283
267 268 269 270 271 271 270 272 273 274 275 276 275 277 277 278 278 278 274 271 269 264 262 263 266 264 263 264 265 269 274 276 278 280 282 284 283 283 283 281 282 282 283
263 265 266 267 268 269 269 269 270 271 272 273 274 275 276 277 279 279 280 274 269 265 261 261 261 261 260 261 262 267 271 275 277 280 280 281 283 282 282 283 281 279 280
259 261 263 265 267 269 270 270 269 269 269 273 274 276 279 279 280 282 285 282 277 272 265 261 260 258 258 259 261 266 270 274 277 279 281 281 281 282 281 282 281 278 278
258 260 262 264 267 270 271 272 272 270 270 271 273 274 277 279 281 282 284 285 280 276 267 260 257 257 256 257 261 266 270 274 277 280 282 281 281 281 282 280 280 279 279
258 261 263 266 268 270 271 272 271 270 269 269 269 271 274 278 282 283 284 283 280 274 268 260 255 253 254 256 260 265 270 275 278 280 281 282 283 282 282 280 279 278 278
Height
5906 5906 5906 5906 5906 5906 5905 5904 5903 5902 5901 5900 5899 5898 5897 5896 5895 5895 5895 5895 5896 5896 5896 5897 5898 5899 5900 5901 5902 5903 5905 5906 5908 5909 5911 5912 5914 5915 5916 5917 5918 5919 5919
5908 5907 5908 5908 5907 5907 5907 5906 5905 5904 5903 5902 5901 5900 5899 5898 5897 5897 5896 5896 5896 5897 5897 5897 5898 5899 5899 5900 5901 5902 5904 5905 5907 5908 5910 5911 5912 5913 5914 5915 5916 5917 5918
5909 5908 5908 5908 5908 5908 5908 5907 5907 5906 5905 5904 5903 5901 5900 5899 5898 5898 5897 5897 5897 5898 5898 5898 5898 5899 5900 5900 5901 5902 5903 5904 5906 5907 5908 5908 5909 5911 5913 5914 5915 5915 5916
5909 5909 5909 5909 5909 5909 5909 5909 5908 5907 5907 5906 5905 5903 5902 5901 5900 5899 5898 5898 5898 5898 5898 5899 5899 5899 5900 5900 5901 5901 5902 5904 5905 5906 5906 5906 5907 5910 5912 5913 5914 5914 5915
5910 5910 5910 5910 5910 5910 5910 5910 5909 5909 5908 5907 5907 5905 5904 5903 5902 5901 5900 5899 5899 5899 5899 5899 5899 5899 5900 5900 5900 5901 5902 5903 5904 5906 5906 5906 5907 5909 5911 5913 5913 5914 5914
5910 5910 5910 5910 5911 5910 5910 5910 5910 5910 5909 5909 5908 5907 5906 5905 5904 5902 5901 5900 5899 5899 5899 5899 5899 5899 5899 5899 5899 5901 5902 5903 5904 5905 5906 5907 5907 5909 5911 5912 5913 5913 5914
5910 5910 5911 5911 5911 5911 5911 5911 5911 5910 5910 5910 5909 5909 5908 5907 5906 5904 5903 5902 5901 5900 5899 5899 5899 5898 5898 5898 5898 5899 5901 5903 5904 5905 5906 5907 5908 5909 5911 5912 5912 5913 5913
5910 5910 5910 5911 5911 5911 5911 5911 5911 5911 5911 5911 5910 5910 5909 5909 5907 5906 5905 5903 5902 5901 5900 5900 5899 5898 5898 5897 5897 5898 5900 5902 5904 5906 5907 5907 5908 5909 5911 5911 5912 5912 5913
5909 5910 5910 5910 5911 5911 5911 5911 5911 5911 5911 5911 5911 5910 5910 5910 5909 5907 5906 5905 5904 5902 5901 5900 5899 5899 5898 5897 5897 5898 5900 5901 5903 5906 5906 5907 5908 5909 5910 5911 5912 5912 5912
5909 5909 5909 5910 5910 5911 5911 5911 5911 5911 5911 5911 5911 5911 5910 5910 5909 5908 5907 5906 5905 5904 5902 5901 5900 5899 5898 5898 5898 5898 5899 5901 5903 5905 5906 5907 5908 5909 5910 5910 5911 5911 5912
5908 5908 5909 5909 5909 5910 5910 5910 5910 5910 5910 5911 5910 5910 5910 5910 5909 5909 5908 5907 5906 5905 5903 5902 5901 5900 5899 5898 5898 5898 5899 5900 5902 5904 5905 5906 5907 5908 5908 5909 5910 5910 5911
5908 5908 5908 5908 5908 5909 5909 5909 5909 5909 5909 5909 5909 5909 5909 5909 5909 5908 5908 5907 5906 5905 5904 5903 5902 5901 5900 5899 5899 5899 5899 5900 5902 5903 5904 5905 5906 5906 5907 5908 5908 5909 5910
5907 5907 5907 5907 5907 5907 5907 5907 5907 5907 5907 5907 5907 5908 5907 5907 5907 5907 5907 5906 5906 5905 5904 5903 5902 5901 5901 5900 5899 5899 5899 5900 5902 5902 5903 5904 5904 5905 5906 5906 5907 5908 5908
5905 5905 5905 5905 5905 5905 5905 5905 5905 5905 5905 5905 5905 5905 5905 5905 5906 5906 5905 5905 5905 5904 5904 5903 5902 5902 5901 5900 5900 5899 5899 5900 5901 5901 5902 5902 5903 5904 5904 5905 5906 5906 5907
5902 5902 5902 5903 5903 5903 5903 5902 5903 5903 5903 5903 5902 5902 5902 5902 5903 5903 5903 5903 5903 5903 5902 5902 5902 5901 5901 5900 5899 5899 5899 5899 5899 5900 5900 5901 5901 5902 5903 5903 5904 5904 5905
5899 5899 5899 5899 5900 5900 5900 5900 5900 5900 5900 5900 5900 5899 5899 5899 5899 5900 5900 5900 5901 5901 5900 5900 5900 5900 5900 5899 5899 5898 5898 5898 5898 5898 5898 5899 5899 5900 5900 5901 5901 5902 5902
5895 5895 5896 5896 5896 5896 5896 5896 5896 5896 5896 5896 5896 5896 5896 5896 5896 5896 5896 5897 5897 5897 5898 5898 5898 5898 5898 5897 5897 5897 5896 5896 5896 5896 5896 5896 5896 5896 5897 5897 5897 5898 5898
5890 5890 5891 5892 5892 5892 5892 5892 5892 5892 5892 5892 5892 5892 5892 5891 5892 5892 5892 5893 5893 5894 5894 5894 5895 5895 5895 5895 5895 5894 5894 5894 5894 5894 5894 5894 5893 5893 5893 5893 5893 5893 5893
5885 5885 5886 5887 5887 5887 5887 5887 5888 5888 5888 5888 5888 5887 5887 5887 5887 5888 5888 5889 5889 5889 5890 5890 5891 5891 5891 5891 5892 5892 5891 5891 5890 5890 5890 5890 5890 5890 5889 5889 5889 5889 5889
5879 5879 5880 5881 5881 5882 5882 5882 5882 5882 5882 5882 5883 5882 5882 5882 5882 5883 5883 5883 5884 5884 5885 5885 5886 5886 5887 5887 5888 5888 5888 5887 5886 5886 5885 5886 5886 5886 5885 5885 5884 5884 5884
5871 5872 5873 5873 5875 5875 5876 5876 5876 5876 5876 5877 5877 5877 5876 5876 5877 5878 5878 5878 5878 5879 5879 5880 5880 5881 5881 5882 5883 5883 5883 5883 5882 5882 5880 5879 5880 5880 5880 5880 5879 5878 5878
5863 5864 5865 5865 5866 5867 5868 5869 5869 5868 5868 5869 5870 5871 5871 5870 5870 5871 5872 5871 5872 5872 5873 5873 5874 5874 5875 5876 5877 5877 5878 5878 5877 5877 5876 5874 5873 5874 5873 5873 5874 5873 5873
5854 5855 5856 5857 5857 5858 5859 5860 5860 5859 5859 5860 5862 5863 5864 5864 5864 5864 5864 5864 5864 5865 5865 5866 5868 5868 5869 5870 5871 5872 5872 5872 5871 5871 5870 5869 5867 5868 5867 5866 5867 5867 5867
5845 5846 5847 5848 5848 5849 5849 5850 5851 5850 5849 5851 5853 5854 5855 5856 5856 5856 5856 5856 5856 5857 5858 5859 5860 5861 5862 5863 5864 5865 5865 5865 5865 5864 5864 5863 5862 5861 5861 5860 5860 5860 5861
5836 5837 5838 5839 5840 5840 5840 5840 5841 5841 5841 5843 5844 5845 5846 5847 5847 5847 5848 5848 5849 5849 5850 5851 5852 5854 5855 5856 5857 5858 5858 5859 5858 5858 5857 5856 5855 5855 5854 5854 5854 5852 5853
5827 5829 5830 5831 5831 5831 5832 5832 5832 5833 5833 5835 5835 5836 5837 5837 5838 5839 5839 5840 5840 5841 5842 5843 5844 5846 5848 5849 5850 5850 5851 5851 5851 5850 5850 5848 5848 5848 5848 5848 5847 5846 5846